sat.trackr.live / text

‹ back to catalog

STARLINK-2145

NORAD 48555 · 2021-041C

PAYLOAD ACTIVE UNKNOWN

§ Identity

Operator
Country
US
Launch date
2021-05-15
Launch site
AFETR
Launch vehicle
Mass (kg)
RCS (m²)

Purposes: comms

External: N2YO · Heavens-Above · Gunter

§ Orbital elements

Epoch: 2026-05-25T00:51:31.258080Z

Period
94.01 min
Inclination
53.1596°
Eccentricity
0.0001140
Mean motion
15.31704632 rev/d
Perigee alt
469.9 km
Apogee alt
471.5 km
Semi-major
6,848.9 km
B*
4.9295e-5
RAAN
153.8542°
Arg perigee
78.6334°
Mean anomaly
281.4795°
Rev number
27,664

§ Raw data

STARLINK-21451 48555U 21041C   26145.03577845  .00001165  00000+0  49295-4 0  99972 48555  53.1596 153.8542 0001140  78.6334 281.4795 15.31704632276646

JSON: /api/v1/satellites/48555 · /tle

For live sub-satellite position, see the globe view (requires WebGL).

§ Visibility from observer

Set your observer location to see the next 7 days of passes ≥ 10°. The values pass through the URL so the page stays shareable.

No JS? Fill the form by hand. The geolocation button needs JavaScript.